Location: Newark
(54.4000°N, 32.4500°E)
Time: 00:10:16
(UTC+00:00)

Envisat - Pass Details

Date: 19 January 2020
Orbit: 764 x 766 km, 98.1° (Epoch: 24 February)

Event Time Altitude Azimuth Distance (km) Brightness Sun altitude
Rises 16:12:31 0° 188° (S) 3,224 6.5 -18.1°
Reaches altitude 10° 16:14:58 10° 196° (SSW) 2,302 5.8 -18.4°
Maximum altitude 16:19:41 38° 264° (W) 1,163 4.5 -19.1°
Drops below altitude 10° 16:24:26 10° 332° (NNW) 2,318 5.7 -19.8°
Sets 16:26:55 0° 341° (NNW) 3,249 6.4 -20.2°
